When you browse on this site, cookies collect data to enhance your experience and personalize the content and advertising you see.
Visit our Privacy Policy to learn more. By continuing to use the site, you agree to this use of cookies and data.
  • In United Kingdom
  • List of Countries
  • For 7 days
  • Water Temperature
  • Satellite Maps
  • Weather Map
  • Weather Widgets
  • user-avatar
    Login

    Hourly Weather Kaprun

    Today, 14 December, Friday

    Time Temperature Precipitation Wind Pressure Humidity
    00:00 -15°C° 0 mm 1 mps 588 mmHg 86%
    01:00 -15°C° 0 mm 1 mps 588 mmHg 85%
    02:00 -16°C° 0 mm 1 mps 588 mmHg 84%
    03:00 -16°C° 0 mm 1 mps 588 mmHg 84%
    04:00 -16°C° 0 mm 1 mps 587 mmHg 83%
    05:00 -16°C° 0 mm 1 mps 588 mmHg 83%
    06:00 -16°C° 0 mm 1 mps 588 mmHg 82%
    07:00 -16°C° 0 mm 1 mps 588 mmHg 81%
    08:00 -15°C° 0 mm 1 mps 589 mmHg 79%
    09:00 -13°C° 0 mm 1 mps 589 mmHg 77%
    10:00 -11°C° 0 mm 1 mps 590 mmHg 75%
    11:00 -10°C° 0 mm 1 mps 591 mmHg 72%
    12:00 -9°C° 0 mm 1 mps 591 mmHg 69%
    13:00 -8°C° 0 mm 1 mps 591 mmHg 67%
    14:00 -9°C° 0 mm 1 mps 591 mmHg 73%
    15:00 -11°C° 0 mm 1 mps 590 mmHg 79%
    16:00 -12°C° 0 mm 1 mps 590 mmHg 85%
    17:00 -13°C° 0 mm 1 mps 590 mmHg 86%
    18:00 -14°C° 0 mm 1 mps 590 mmHg 87%
    19:00 -14°C° 0 mm 1 mps 590 mmHg 88%
    20:00 -15°C° 0 mm 1 mps 590 mmHg 86%
    21:00 -15°C° 0 mm 1 mps 590 mmHg 84%
    22:00 -17°C° 0 mm 2 mps 590 mmHg 82%
    23:00 -17°C° 0 mm 2 mps 590 mmHg 80%

    Tomorrow, 15 December, Saturday

    Time Temperature Precipitation Wind Pressure Humidity
    00:00 -17°C° 0 mm 2 mps 590 mmHg 78%
    01:00 -17°C° 0 mm 2 mps 591 mmHg 77%
    02:00 -17°C° 0 mm 2 mps 591 mmHg 78%
    03:00 -17°C° 0 mm 2 mps 591 mmHg 79%
    04:00 -17°C° 0 mm 2 mps 591 mmHg 80%
    05:00 -17°C° 0 mm 2 mps 591 mmHg 81%
    06:00 -17°C° 0 mm 2 mps 591 mmHg 83%
    07:00 -17°C° 0 mm 2 mps 591 mmHg 84%
    08:00 -16°C° 0 mm 2 mps 592 mmHg 83%
    09:00 -15°C° 0 mm 2 mps 593 mmHg 81%
    10:00 -14°C° 0 mm 2 mps 593 mmHg 80%
    11:00 -13°C° 0 mm 2 mps 593 mmHg 78%
    12:00 -12°C° 0 mm 2 mps 593 mmHg 76%
    13:00 -10°C° 0 mm 2 mps 593 mmHg 74%
    14:00 -10°C° 0 mm 1 mps 593 mmHg 78%
    15:00 -11°C° 0 mm 1 mps 592 mmHg 82%
    16:00 -12°C° 0 mm 1 mps 592 mmHg 85%
    17:00 -13°C° 0 mm 1 mps 592 mmHg 83%
    18:00 -14°C° 0 mm 1 mps 592 mmHg 80%
    19:00 -16°C° 0 mm 2 mps 592 mmHg 78%
    20:00 -14°C° 0 mm 1 mps 591 mmHg 74%
    21:00 -14°C° 0 mm 1 mps 591 mmHg 70%
    22:00 -14°C° 0 mm 1 mps 591 mmHg 67%
    23:00 -14°C° 0 mm 1 mps 591 mmHg 63%

    Day after tomorrow, 16 December, Sunday

    Time Temperature Precipitation Wind Pressure Humidity
    00:00 -14°C° 0 mm 1 mps 591 mmHg 60%
    01:00 -14°C° 0 mm 1 mps 591 mmHg 57%
    02:00 -13°C° 0 mm 1 mps 590 mmHg 56%
    03:00 -13°C° 0 mm 1 mps 590 mmHg 54%
    04:00 -13°C° 0 mm 1 mps 590 mmHg 53%
    05:00 -12°C° 0 mm 1 mps 590 mmHg 54%
    06:00 -11°C° 0 mm 1 mps 591 mmHg 55%
    07:00 -10°C° 0 mm 1 mps 591 mmHg 57%
    08:00 -9°C° 0.1 mm 1 mps 592 mmHg 61%
    09:00 -8°C° 0.1 mm 1 mps 592 mmHg 64%
    10:00 -6°C° 0.1 mm 1 mps 593 mmHg 68%
    11:00 -4°C° 0 mm 1 mps 593 mmHg 70%
    12:00 -3°C° 0 mm 1 mps 593 mmHg 71%
    13:00 -2°C° 0 mm 1 mps 593 mmHg 72%
    14:00 -3°C° 0.1 mm 1 mps 593 mmHg 76%
    15:00 -3°C° 0.1 mm 1 mps 593 mmHg 79%
    16:00 -5°C° 0.1 mm 0 mps 593 mmHg 82%
    17:00 -5°C° 0.6 mm 0 mps 593 mmHg 85%
    18:00 -5°C° 0.6 mm 0 mps 593 mmHg 89%
    19:00 -6°C° 0.6 mm 0 mps 593 mmHg 92%
    20:00 -6°C° 0.7 mm 0 mps 594 mmHg 93%
    21:00 -6°C° 0.7 mm 0 mps 594 mmHg 95%
    22:00 -6°C° 0.7 mm 1 mps 594 mmHg 96%
    23:00 -6°C° 0.4 mm 1 mps 594 mmHg 96%

    17 December, Monday

    Time Temperature Precipitation Wind Pressure Humidity
    00:00 -6°C° 0.4 mm 1 mps 594 mmHg 96%
    01:00 -6°C° 0.4 mm 1 mps 594 mmHg 96%
    02:00 -6°C° 0.1 mm 1 mps 594 mmHg 95%
    03:00 -6°C° 0.1 mm 1 mps 594 mmHg 95%
    04:00 -7°C° 0.1 mm 1 mps 594 mmHg 94%
    05:00 -7°C° 0 mm 1 mps 593 mmHg 93%
    06:00 -8°C° 0 mm 1 mps 593 mmHg 91%
    07:00 -8°C° 0 mm 1 mps 593 mmHg 90%
    08:00 -8°C° 0 mm 1 mps 594 mmHg 87%
    09:00 -7°C° 0 mm 1 mps 595 mmHg 83%
    10:00 -6°C° 0 mm 1 mps 595 mmHg 80%
    11:00 -6°C° 0 mm 1 mps 596 mmHg 78%
    12:00 -4°C° 0 mm 1 mps 596 mmHg 76%
    13:00 -3°C° 0 mm 1 mps 596 mmHg 75%
    14:00 -4°C° 0 mm 1 mps 596 mmHg 79%
    15:00 -6°C° 0 mm 1 mps 595 mmHg 83%
    16:00 -8°C° 0 mm 1 mps 595 mmHg 88%
    17:00 -9°C° 0 mm 1 mps 595 mmHg 87%
    18:00 -10°C° 0 mm 2 mps 595 mmHg 86%
    19:00 -12°C° 0 mm 2 mps 596 mmHg 85%
    20:00 -12°C° 0 mm 2 mps 596 mmHg 84%
    21:00 -12°C° 0 mm 2 mps 596 mmHg 84%
    22:00 -12°C° 0 mm 2 mps 597 mmHg 83%
    23:00 -12°C° 0 mm 2 mps 597 mmHg 83%

    18 December, Tuesday

    Time Temperature Precipitation Wind Pressure Humidity
    00:00 -12°C° 0 mm 2 mps 597 mmHg 84%
    01:00 -12°C° 0 mm 2 mps 597 mmHg 84%
    02:00 -12°C° 0 mm 2 mps 597 mmHg 84%
    03:00 -12°C° 0 mm 2 mps 597 mmHg 84%
    04:00 -12°C° 0 mm 2 mps 597 mmHg 84%
    05:00 -12°C° 0 mm 2 mps 597 mmHg 84%
    06:00 -13°C° 0 mm 2 mps 597 mmHg 84%
    07:00 -11°C° 0 mm 1 mps 598 mmHg 84%
    08:00 -9°C° 0 mm 1 mps 598 mmHg 83%
    09:00 -8°C° 0 mm 1 mps 599 mmHg 82%
    10:00 -7°C° 0 mm 1 mps 600 mmHg 80%
    11:00 -6°C° 0 mm 1 mps 600 mmHg 78%
    12:00 -3°C° 0 mm 1 mps 600 mmHg 75%
    13:00 -4°C° 0 mm 2 mps 599 mmHg 73%
    14:00 -5°C° 0 mm 2 mps 599 mmHg 74%
    15:00 -6°C° 0 mm 2 mps 598 mmHg 76%
    16:00 -8°C° 0 mm 2 mps 597 mmHg 77%
    17:00 -8°C° 0 mm 2 mps 597 mmHg 73%
    18:00 -9°C° 0 mm 2 mps 597 mmHg 68%
    19:00 -10°C° 0 mm 2 mps 596 mmHg 64%
    20:00 -10°C° 0 mm 2 mps 596 mmHg 62%
    21:00 -10°C° 0 mm 2 mps 596 mmHg 60%
    22:00 -10°C° 0 mm 3 mps 596 mmHg 58%
    23:00 -10°C° 0 mm 3 mps 596 mmHg 58%

    19 December, Wednesday

    Time Temperature Precipitation Wind Pressure Humidity
    00:00 -10°C° 0 mm 3 mps 595 mmHg 58%
    01:00 -10°C° 0 mm 3 mps 595 mmHg 58%
    02:00 -10°C° 0 mm 3 mps 595 mmHg 59%
    03:00 -10°C° 0 mm 3 mps 595 mmHg 60%
    04:00 -10°C° 0 mm 3 mps 594 mmHg 61%
    05:00 -9°C° 0 mm 2 mps 595 mmHg 62%
    06:00 -8°C° 0 mm 2 mps 595 mmHg 63%
    07:00 -8°C° 0 mm 2 mps 595 mmHg 64%
    08:00 -7°C° 0 mm 2 mps 595 mmHg 65%
    09:00 -6°C° 0 mm 2 mps 595 mmHg 66%
    10:00 -6°C° 0 mm 2 mps 596 mmHg 67%
    11:00 -5°C° 0 mm 2 mps 595 mmHg 68%
    12:00 -4°C° 0 mm 2 mps 595 mmHg 69%
    13:00 -4°C° 0 mm 2 mps 595 mmHg 71%
    14:00 -5°C° 0 mm 2 mps 594 mmHg 73%
    15:00 -6°C° 0 mm 2 mps 594 mmHg 76%
    16:00 -7°C° 0 mm 2 mps 593 mmHg 79%
    17:00 -8°C° 0 mm 2 mps 593 mmHg 80%
    18:00 -8°C° 0 mm 2 mps 592 mmHg 81%
    19:00 -9°C° 0 mm 2 mps 592 mmHg 82%
    20:00 -9°C° 0 mm 2 mps 592 mmHg 82%
    21:00 -9°C° 0 mm 2 mps 592 mmHg 83%
    22:00 -9°C° 0 mm 2 mps 592 mmHg 84%
    23:00 -9°C° 0 mm 2 mps 592 mmHg 84%
    Show more